CST,Max TemperatureF,Mean TemperatureF,Min TemperatureF,Max Dew PointF,MeanDew PointF,Min DewpointF,Max Humidity, Mean Humidity, Min Humidity, Max Sea Level PressureIn, Mean Sea Level PressureIn, Min Sea Level PressureIn, Max VisibilityMiles, Mean VisibilityMiles, Min VisibilityMiles, Max Wind SpeedMPH, Mean Wind SpeedMPH, Max Gust SpeedMPH,PrecipitationIn, CloudCover, Events, WindDirDegrees
2011-11-1,80,60,39,36,32,19,81,36,17,30.30,30.12,29.81,10,9,8,10,5,,0.00,0,,43
2011-11-2,82,62,42,39,32,27,76,35,16,30.33,30.13,29.86,10,9,8,8,3,,0.00,0,,55
2011-11-3,84,66,48,48,33,16,67,35,8,30.33,30.14,29.79,14,10,8,14,6,,0.00,0,,88
2011-11-4,84,68,51,50,44,34,94,47,19,30.32,30.13,29.78,12,9,7,7,2,,0.00,3,,307
2011-11-5,86,68,51,48,42,39,67,41,19,30.27,30.07,29.73,10,8,6,8,2,,0.00,3,,300
2011-11-6,84,68,51,46,43,41,76,48,22,30.29,30.09,29.76,10,9,8,8,2,,0.00,5,,130
2011-11-7,84,67,50,45,43,39,71,47,23,30.30,30.08,29.77,10,9,8,8,1,,0.00,4,,202
2011-11-8,86,68,51,48,45,41,76,49,23,30.27,30.07,29.74,10,9,8,13,2,,0.00,3,,233
2011-11-9,84,66,48,52,43,37,82,50,23,30.30,30.12,29.78,10,9,8,8,1,,0.00,3,,136
2011-11-10,78,63,48,54,46,37,100,65,32,30.35,30.19,29.82,10,9,8,23,5,,0.00,4,,54
2011-11-11,78,58,39,46,40,32,81,54,30,30.37,30.21,29.94,8,8,6,12,5,,0.00,3,,14
2011-11-12,82,65,48,48,40,34,76,42,20,30.32,30.14,29.84,12,9,6,13,2,26,0.00,2,,266
2011-11-13,80,62,44,43,37,34,71,41,21,30.33,30.13,29.82,12,9,7,12,4,,0.00,2,,260
2011-11-14,80,62,44,43,38,36,71,43,20,30.27,30.08,29.76,10,8,8,14,3,,0.00,4,,250
2011-11-15,80,62,44,46,40,37,82,47,21,30.24,30.06,29.68,14,9,7,21,4,,0.00,1,,268
2011-11-16,82,63,44,45,37,30,82,45,16,30.27,30.09,29.77,10,9,8,9,2,,0.00,0,,247
2011-11-17,80,68,55,46,43,32,72,45,25,30.35,30.14,29.81,10,8,6,18,10,,0.00,1,,73
2011-11-18,80,63,46,46,44,41,100,53,24,30.35,30.14,29.86,10,9,8,7,2,,0.00,1,,210
2011-11-19,84,68,51,48,45,43,76,44,23,30.30,30.11,29.74,10,9,8,8,2,,0.00,1,,232
2011-11-20,87,70,53,48,43,34,72,43,22,30.33,30.10,29.78,10,9,8,9,1,,0.00,1,,84
2011-11-21,80,65,50,45,40,34,58,40,24,30.38,30.14,29.79,10,9,8,8,2,,0.00,4,,315
2011-11-22,87,69,51,50,44,39,82,47,22,30.33,30.12,29.81,10,8,7,10,3,,0.00,2,,57
2011-11-23,84,68,53,48,44,36,82,49,19,30.38,30.22,29.88,10,8,6,14,4,,0.00,1,,74
2011-11-24,84,65,46,48,41,30,100,49,17,30.40,30.21,29.87,10,9,8,14,5,,0.00,0,,59
2011-11-25,82,64,46,43,36,30,57,37,20,30.32,30.12,29.79,10,9,6,10,2,,0.00,1,,297
2011-11-26,80,66,51,46,40,34,76,46,21,30.27,30.07,29.77,10,8,7,10,2,,0.00,2,,298
2011-11-27,60,52,44,48,30,12,67,40,24,30.38,30.18,29.80,10,9,8,22,12,29,0.00,5,,40
2011-11-28,73,52,32,21,13,-6,55,28,5,30.38,30.25,30.01,10,9,8,14,6,,0.00,0,,37
2011-11-29,78,55,32,12,4,-9,38,20,5,30.35,30.21,29.95,10,9,8,10,2,,0.00,2,,46
2011-11-30,78,56,35,12,5,-8,35,16,4,30.33,30.16,29.94,10,9,8,8,2,,0.00,0,,144